Погода в Шуре

Россия / Республика Марий Эл     57°07′21″N   48°19′35″E
темп.,
°C
ветер,
м/с
пор.,
м/с
влажн.,
%
обл.,
%
осадки,
мм/ч
давл.,
гПа
погр.,
м
17 апреля, сб
сб1700:00+3всв411775 0.0 1028207
03:00+2всв410802 0.0 1029186
06:00+1всв410790 0.0 1030212
09:00+5всв610640 0.0 1030446
12:00+7всв68590 0.0 1029667
15:00+9всв56575 0.0 1028829
18:00+7всв35711 0.0 1027115
21:00+4св33815 0.0 102728
18 апреля, вс
вс1800:00+3св33830 0.0 102633
03:00+2св35840 0.0 102670
06:00+3св36820 0.0 1026133
09:00+8св46605 0.0 1026572
12:00+9св775986 0.0 10261328
15:00+6всв7967100 0.0 10281107
18:00+5всв71049100 0.0 1028833
21:00+2всв61357100 0.0 1030511
19 апреля, пн
пн1900:00+1всв61365100 0.0 1031537
03:000всв61370100 0.0 1032489
06:000всв6136445 0.0 1033570
09:00+3в811392 0.0 10331296
12:00+6в810340 0.0 10331629
15:00+7в89320 0.0 10321736
18:00+5в610400 0.0 1033607
21:00+1в512560 0.0 1034278
20 апреля, вт
вт2000:000в512590 0.0 1034274
03:00−1в512550 0.0 1034323
06:000в612500 0.0 1035398
09:00+5вюв68370 0.0 1035956
12:00+8вюв79320 0.0 10331371
15:00+9юв78300 0.0 10321477
18:00+7юв510414 0.0 1031389
21:00+3вюв61451100 0.0 1030342
21 апреля, ср
ср2100:00+2вюв6145799 0.0 1030336
03:00+2юв71555100 0.0 1029420
06:00+2юв81852100 0.0 1027616
09:00+6юв91642100 0.0 1026868
12:00+9ююв91639100 0.0 10251201
15:00+5ююв101858100 0.3 1024938
18:00+5ююв91862100 0.7 10231032
21:00+4ююв101880100 0.8 1023814